H1 CPF 2 NER 2025 7 18 9 199 01 glonass139 H2 1808601 9139 43687 2025 7 18 0 0 0 2025 7 21 23 45 0 900 1 1 0 0 0 1 H9 10 0 60874 0.00000 0 -9380831.530 -15113694.699 -18262014.882 10 0 60874 900.00000 0 -9615133.217 -17229646.269 -16148076.278 10 0 60874 1800.00000 0 -9961985.805 -19045981.429 -13720055.601 10 0 60874 2700.00000 0 -10374230.465 -20523560.251 -11025259.903 10 0 60874 3600.00000 0 -10799351.241 -21634960.815 -8116157.792 10 0 60874 4500.00000 0 -11181874.965 -22365435.008 -5049350.445 10 0 60874 5400.00000 0 -11465905.833 -22713345.709 -1884464.014 10 0 60874 6300.00000 0 -11597686.720 -22690068.779 1317014.321 10 0 60874 7200.00000 0 -11528078.418 -22319365.761 4492933.416 10 0 60874 8100.00000 0 -11214851.731 -21636255.467 7581684.638 10 0 60874 9000.00000 0 -10624695.607 -20685433.464 10523394.138 10 0 60874 9900.00000 0 -9734856.685 -19519307.209 13261077.828 10 0 60874 10800.00000 0 -8534341.383 -18195730.285 15741737.076 10 0 60874 11700.00000 0 -7024630.077 -16775531.267 17917374.655 10 0 60874 12600.00000 0 -5219873.376 -15319940.826 19745912.196 10 0 60874 13500.00000 0 -3146561.968 -13888024.346 21191992.651 10 0 60874 14400.00000 0 -842683.157 -12534226.613 22227653.495 10 0 60874 15300.00000 0 1643601.700 -11306130.080 22832858.867 10 0 60874 16200.00000 0 4255705.224 -10242519.113 22995881.431 10 0 60874 17100.00000 0 6930716.512 -9371829.800 22713527.288 10 0 60874 18000.00000 0 9601772.713 -8711049.007 21991199.946 10 0 60874 18900.00000 0 12200603.189 -8265107.875 20842801.973 10 0 60874 19800.00000 0 14660142.679 -8026794.710 19290475.685 10 0 60874 20700.00000 0 16917106.583 -7977190.873 17364186.903 10 0 60874 21600.00000 0 18914422.798 -8086611.695 15101158.601 10 0 60874 22500.00000 0 20603419.848 -8316013.530 12545163.930 10 0 60874 23400.00000 0 21945680.619 -8618808.454 9745690.930 10 0 60874 24300.00000 0 22914484.371 -8943010.879 6756993.801 10 0 60874 25200.00000 0 23495776.376 -9233626.026 3637048.078 10 0 60874 26100.00000 0 23688623.974 -9435179.550 446429.377 10 0 60874 27000.00000 0 23505139.129 -9494281.147 -2752862.790 10 0 60874 27900.00000 0 22969870.019 -9362112.935 -5898613.123 10 0 60874 28800.00000 0 22118686.608 -8996736.193 -8929606.508 10 0 60874 29700.00000 0 20997206.739 -8365117.243 -11786827.411 10 0 60874 30600.00000 0 19658828.896 -7444784.974 -14414618.385 10 0 60874 31500.00000 0 18162454.714 -6225047.922 -16761774.054 10 0 60874 32400.00000 0 16569997.548 -4707717.486 -18782548.306 10 0 60874 33300.00000 0 14943782.622 -2907304.826 -20437554.218 10 0 60874 34200.00000 0 13343948.838 -850681.371 -21694538.510 10 0 60874 35100.00000 0 11825962.157 1423784.267 -22529014.981 10 0 60874 36000.00000 0 10438345.565 3867578.014 -22924744.364 10 0 60874 36900.00000 0 9220721.261 6423824.886 -22874051.169 10 0 60874 37800.00000 0 8202247.259 9029432.296 -22377971.449 10 0 60874 38700.00000 0 7400513.647 11617502.887 -21446228.800 10 0 60874 39600.00000 0 6820944.147 14119916.203 -20097039.350 10 0 60874 40500.00000 0 6456727.058 16469971.485 -18356749.867 10 0 60874 41400.00000 0 6289277.106 18604981.284 -16259316.430 10 0 60874 42300.00000 0 6289207.276 20468707.687 -13845634.295 10 0 60874 43200.00000 0 6417767.974 22013539.666 -11162732.535 10 0 60874 44100.00000 0 6628691.203 23202321.061 -8262849.714 10 0 60874 45000.00000 0 6870360.301 24009753.503 -5202409.316 10 0 60874 45900.00000 0 7088212.202 24423316.642 -2040915.523 10 0 60874 46800.00000 0 7227269.506 24443668.463 1160208.475 10 0 60874 47700.00000 0 7234694.467 24084510.452 4338816.431 10 0 60874 48600.00000 0 7062256.369 23371924.853 7433245.575 10 0 60874 49500.00000 0 6668607.785 22343213.389 10383510.092 10 0 60874 50400.00000 0 6021273.582 21045287.509 13132458.436 10 0 60874 51300.00000 0 5098268.948 19532678.685 15626872.428 10 0 60874 52200.00000 0 3889278.418 17865252.734 17818487.561 10 0 60874 53100.00000 0 2396346.435 16105724.004 19664915.720 10 0 60874 54000.00000 0 634050.310 14317073.043 21130453.652 10 0 60874 54900.00000 0 -1370852.167 12559974.827 22186762.821 10 0 60874 55800.00000 0 -3580286.535 10890343.798 22813408.721 10 0 60874 56700.00000 0 -5946202.141 9357096.743 22998250.280 10 0 60874 57600.00000 0 -8412335.025 8000225.333 22737672.585 10 0 60874 58500.00000 0 -10916321.732 6849257.361 22036658.768 10 0 60874 59400.00000 0 -13392078.158 5922169.646 20908699.595 10 0 60874 60300.00000 0 -15772346.588 5224797.162 19375541.940 10 0 60874 61200.00000 0 -17991306.815 4750762.553 17466780.085 10 0 60874 62100.00000 0 -19987144.289 4481928.896 15219296.511 10 0 60874 63000.00000 0 -21704469.431 4389356.860 12676561.555 10 0 60874 63900.00000 0 -23096487.845 4434726.521 9887804.096 10 0 60874 64800.00000 0 -24126830.927 4572164.427 6907068.020 10 0 60874 65700.00000 0 -24770969.961 4750399.369 3792171.693 10 0 60874 66600.00000 0 -25017153.750 4915156.006 603589.985 10 0 60874 67500.00000 0 -24866829.536 5011685.068 -2596719.735 10 0 60874 68400.00000 0 -24334528.503 4987322.564 -5746524.689 10 0 60874 69300.00000 0 -23447219.718 4793968.697 -8784532.846 10 0 60874 70200.00000 0 -22243158.957 4390380.200 -11651593.698 10 0 60874 71100.00000 0 -20770280.341 3744177.408 -14291859.332 10 0 60874 72000.00000 0 -19084198.297 2833479.271 -16653882.090 10 0 60874 72900.00000 0 -17245904.017 1648095.245 -18691626.499 10 0 60874 73800.00000 0 -15319253.601 190221.782 -20365374.880 10 0 60874 74700.00000 0 -13368353.954 -1525387.766 -21642508.321 10 0 60874 75600.00000 0 -11454956.718 -3471788.579 -22498147.337 10 0 60874 76500.00000 0 -9635970.032 -5610731.168 -22915639.496 10 0 60874 77400.00000 0 -7961192.760 -7894033.303 -22886884.444 10 0 60874 78300.00000 0 -6471366.150 -10265380.355 -22412490.068 10 0 60874 79200.00000 0 -5196624.210 -12662479.085 -21501756.942 10 0 60874 80100.00000 0 -4155407.117 -15019474.993 -20172491.655 10 0 60874 81000.00000 0 -3353882.082 -17269532.167 -18450652.977 10 0 60874 81900.00000 0 -2785894.603 -19347467.733 -16369838.138 10 0 60874 82800.00000 0 -2433450.464 -21192330.683 -13970619.718 10 0 60874 83700.00000 0 -2267706.334 -22749817.255 -11299746.572 10 0 60874 84600.00000 0 -2250425.336 -23974421.998 -8409224.941 10 0 60874 85500.00000 0 -2335834.293 -24831234.895 -5355298.323 10 0 60875 0.00000 0 -2472802.520 -25297309.906 -2197346.950 10 0 60875 900.00000 0 -2607248.681 -25362548.735 1003272.782 10 0 60875 1800.00000 0 -2684672.586 -25030063.386 4184421.448 10 0 60875 2700.00000 0 -2652704.327 -24316004.450 7284384.313 10 0 60875 3600.00000 0 -2463562.315 -23248862.960 10243065.749 10 0 60875 4500.00000 0 -2076316.295 -21868276.647 13003148.869 10 0 60875 5400.00000 0 -1458859.863 -20223391.562 15511197.991 10 0 60875 6300.00000 0 -589509.563 -18370848.286 17718683.276 10 0 60875 7200.00000 0 541836.586 -16372477.208 19582908.654 10 0 60875 8100.00000 0 1933029.741 -14292798.879 21067826.245 10 0 60875 9000.00000 0 3569518.372 -12196433.036 22144722.849 10 0 60875 9900.00000 0 5424720.813 -10145523.234 22792766.379 10 0 60875 10800.00000 0 7460907.624 -8197282.919 22999402.809 10 0 60875 11700.00000 0 9630558.353 -6401763.585 22760596.700 10 0 60875 12600.00000 0 11878137.786 -4799936.320 22080911.021 10 0 60875 13500.00000 0 14142219.656 -3422165.211 20973424.671 10 0 60875 14400.00000 0 16357871.386 -2287134.999 19459488.748 10 0 60875 15300.00000 0 18459202.426 -1401276.866 17568325.396 10 0 60875 16200.00000 0 20381971.702 -758715.839 15336475.710 10 0 60875 17100.00000 0 22066146.705 -341741.824 12807106.018 10 0 60875 18000.00000 0 23458308.146 -121784.650 10029184.512 10 0 60875 18900.00000 0 24513799.939 -60852.365 7056542.894 10 0 60875 19800.00000 0 25198534.239 -113372.586 3946840.147 10 0 60875 20700.00000 0 25490375.161 -228359.364 760447.866 10 0 60875 21600.00000 0 25380042.085 -351814.010 -2440721.500 10 0 60875 22500.00000 0 24871493.386 -429257.996 -5594420.640 10 0 60875 23400.00000 0 23981773.209 -408289.939 -8639283.608 10 0 60875 24300.00000 0 22740326.617 -241057.328 -11516027.892 10 0 60875 25200.00000 0 21187811.022 113463.128 -14168617.950 10 0 60875 26100.00000 0 19374453.286 687474.723 -16545366.511 10 0 60875 27000.00000 0 17358021.279 1502745.579 -18599951.199 10 0 60875 27900.00000 0 15201495.110 2569439.183 -20292325.831 10 0 60875 28800.00000 0 12970536.014 3885441.768 -21589507.905 10 0 60875 29700.00000 0 10730859.407 5436216.499 -22466226.477 10 0 60875 30600.00000 0 8545622.531 7195192.007 -22905417.559 10 0 60875 31500.00000 0 6472936.360 9124670.004 -22898557.268 10 0 60875 32400.00000 0 4563605.929 11177214.675 -22445826.342 10 0 60875 33300.00000 0 2859193.374 13297466.114 -21556102.998 10 0 60875 34200.00000 0 1390484.150 15424301.989 -20246784.540 10 0 60875 35100.00000 0 176419.632 17493256.934 -18543441.542 10 0 60875 36000.00000 0 -776460.564 19439098.244 -16479311.724 10 0 60875 36900.00000 0 -1474044.812 21198449.776 -14094643.840 10 0 60875 37800.00000 0 -1934145.108 22712354.012 -11435904.897 10 0 60875 38700.00000 0 -2185485.405 23928664.847 -8554866.711 10 0 60875 39600.00000 0 -2266227.363 24804170.902 -5507590.273 10 0 60875 40500.00000 0 -2222097.683 25306360.677 -2353328.389 10 0 60875 41400.00000 0 -2104197.904 25414756.049 846631.403 10 0 60875 42300.00000 0 -1966590.678 25121759.004 4030160.468 10 0 60875 43200.00000 0 -1863765.684 24432977.051 7135495.637 10 0 60875 44100.00000 0 -1848093.016 23367014.761 10102435.023 10 0 60875 45000.00000 0 -1967372.012 21954741.196 12873499.878 10 0 60875 45900.00000 0 -2262579.038 20238064.827 15395040.357 10 0 60875 46800.00000 0 -2765909.021 18268267.807 17618264.433 10 0 60875 47700.00000 0 -3499192.938 16103969.461 19500170.957 10 0 60875 48600.00000 0 -4472757.544 13808803.825 21004370.021 10 0 60875 49500.00000 0 -5684775.183 11448907.374 22101775.988 10 0 60875 50400.00000 0 -7121131.114 9090320.551 22771161.042 10 0 60875 51300.00000 0 -8755814.576 6796409.782 22999559.595 10 0 60875 52200.00000 0 -10551818.225 4625415.534 22782516.570 10 0 60875 53100.00000 0 -12462509.804 2628226.686 22124175.097 10 0 60875 54000.00000 0 -14433420.509 846472.097 21037201.932 10 0 60875 54900.00000 0 -16404377.350 -688992.708 19542551.506 10 0 60875 55800.00000 0 -18311892.402 -1959141.797 17669072.298 10 0 60875 56700.00000 0 -20091710.995 -2957334.852 15452961.927 10 0 60875 57600.00000 0 -21681413.814 -3689350.154 12937080.091 10 0 60875 58500.00000 0 -23022965.088 -4172893.292 10170131.254 10 0 60875 59400.00000 0 -24065100.635 -4436602.152 7205731.578 10 0 60875 60300.00000 0 -24765455.586 -4518589.833 4101377.105 10 0 60875 61200.00000 0 -25092341.872 -4464586.709 917332.511 10 0 60875 62100.00000 0 -25026099.771 -4325760.019 -2284538.319 10 0 60875 63000.00000 0 -24559965.351 -4156303.382 -5441977.096 10 0 60875 63900.00000 0 -23700415.868 -4010898.739 -8493547.390 10 0 60875 64800.00000 0 -22466977.127 -3942159.064 -11379837.914 10 0 60875 65700.00000 0 -20891499.624 -3998161.300 -14044628.497 10 0 60875 66600.00000 0 -19016932.902 -4220175.463 -16435994.942 10 0 60875 67500.00000 0 -16895648.909 -4640687.571 -18507330.292 10 0 60875 68400.00000 0 -14587384.379 -5281801.736 -20218261.729 10 0 60875 69300.00000 0 -12156888.456 -6154090.521 -21535444.518 10 0 60875 70200.00000 0 -9671374.249 -7255943.594 -22433217.065 10 0 60875 71100.00000 0 -7197881.157 -8573443.474 -22894104.063 10 0 60875 72000.00000 0 -4800658.546 -10080774.603 -22909157.801 10 0 60875 72900.00000 0 -2538680.164 -11741149.373 -22478131.080 10 0 60875 73800.00000 0 -463392.991 -13508212.664 -21609478.542 10 0 60875 74700.00000 0 1383205.854 -15327866.134 -20320186.639 10 0 60875 75600.00000 0 2970084.603 -17140435.703 -18635435.900 10 0 60875 76500.00000 0 4278222.559 -18883091.100 -16588102.451 10 0 60875 77400.00000 0 5301143.802 -20492415.639 -14218108.969 10 0 60875 78300.00000 0 6044918.393 -21907018.068 -11571638.232 10 0 60875 79200.00000 0 6527633.143 -23070076.599 -8700225.164 10 0 60875 80100.00000 0 6778356.382 -23931708.120 -5659745.727 10 0 60875 81000.00000 0 6835642.561 -24451063.149 -2509323.049 10 0 60875 81900.00000 0 6745641.746 -24598058.778 689827.281 10 0 60875 82800.00000 0 6559895.614 -24354677.282 3875589.626 10 0 60875 83700.00000 0 6332914.458 -23715776.542 6986154.796 10 0 60875 84600.00000 0 6119638.577 -22689379.041 9961216.961 10 0 60875 85500.00000 0 5972891.852 -21296428.138 12743137.711 10 0 60876 0.00000 0 5940935.220 -19570022.728 15278054.864 10 0 60876 900.00000 0 6065223.074 -17554161.838 17516916.499 10 0 60876 1800.00000 0 6378456.794 -15302054.212 19416417.768 10 0 60876 2700.00000 0 6903016.815 -12874060.182 20939828.071 10 0 60876 3600.00000 0 7649838.813 -10335353.169 22057690.401 10 0 60876 4500.00000 0 8617780.981 -7753396.282 22748381.953 10 0 60876 5400.00000 0 9793509.103 -5195337.654 22998526.033 10 0 60876 6300.00000 0 11151904.798 -2725431.038 22803248.084 10 0 60876 7200.00000 0 12656980.874 -402587.064 22166271.293 10 0 60876 8100.00000 0 14263266.854 1721844.981 21099849.927 10 0 60876 9000.00000 0 15917608.458 3605974.275 19624541.179 10 0 60876 9900.00000 0 17561307.557 5218866.948 17768819.095 10 0 60876 10800.00000 0 19132514.847 6541584.568 15568536.835 10 0 60876 11700.00000 0 20568776.652 7567719.981 13066246.281 10 0 60876 12600.00000 0 21809630.314 8303408.447 10310386.747 10 0 60876 13500.00000 0 22799139.980 8766813.656 7354357.200 10 0 60876 14400.00000 0 23488266.501 8987110.134 4255488.840 10 0 60876 15300.00000 0 23836971.352 9003004.676 1073937.296 10 0 60876 16200.00000 0 23815965.176 8860859.050 -2128484.432 10 0 60876 17100.00000 0 23408026.006 8612493.341 -5289509.536 10 0 60876 18000.00000 0 22608830.092 8312763.137 -8347633.611 10 0 60876 18900.00000 0 21427258.661 8017013.721 -11243319.104 10 0 60876 19800.00000 0 19885166.074 7778519.970 -13920163.635 10 0 60876 20700.00000 0 18016617.732 7646021.553 -16326008.402 10 0 60876 21600.00000 0 15866628.604 7661459.093 -18413964.050 10 0 60876 22500.00000 0 13489454.525 7858008.530 -20143333.190 10 0 60876 23400.00000 0 10946507.445 8258498.219 -21480410.813 10 0 60876 24300.00000 0 8303981.756 8874276.926 -22399146.532 10 0 60876 25200.00000 0 5630290.949 9704581.684 -22881655.457 10 0 60876 26100.00000 0 2993421.869 10736433.053 -22918567.631 10 0 60876 27000.00000 0 458317.086 11945062.862 -22509209.275 10 0 60876 27900.00000 0 -1915605.435 13294856.846 -21661612.514 10 0 60876 28800.00000 0 -4076692.124 14740772.624 -20392353.633 10 0 60876 29700.00000 0 -5982960.198 16230173.314 -18726223.374 10 0 60876 30600.00000 0 -7603592.011 17704999.414 -16695736.063 10 0 60876 31500.00000 0 -8919956.200 19104187.219 -14340487.618 10 0 60876 32400.00000 0 -9926114.594 20366231.625 -11706375.436 10 0 60876 33300.00000 0 -10628795.623 21431785.096 -8844695.952 10 0 60876 34200.00000 0 -11046837.504 22246183.096 -5811138.093 10 0 60876 35100.00000 0 -11210126.875 22761789.518 -2664692.940 10 0 60876 36000.00000 0 -11158079.748 22940063.433 533498.560 10 0 60876 36900.00000 0 -10937730.822 22753260.353 3721336.722 10 0 60876 37800.00000 0 -10601513.459 22185696.914 6836969.500 10 0 60876 38700.00000 0 -10204825.298 21234526.287 9819990.424 10 0 60876 39600.00000 0 -9803483.120 19909992.393 12612604.814 10 0 60876 40500.00000 0 -9451174.719 18235152.798 15160741.976 10 0 60876 41400.00000 0 -9197015.206 16245082.257 17415092.525 10 0 60876 42300.00000 0 -9083310.323 13985590.358 19332051.603 10 0 60876 43200.00000 0 -9143620.323 11511506.580 20874550.942 10 0 60876 44100.00000 0 -9401205.183 8884603.574 22012764.913 10 0 60876 45000.00000 0 -9867915.883 6171244.112 22724678.142 10 0 60876 45900.00000 0 -10543577.976 3439848.104 22996504.827 10 0 60876 46800.00000 0 -11415893.345 758283.153 22822952.453 10 0 60876 47700.00000 0 -12460864.735 -1808714.829 22207325.244 10 0 60876 48600.00000 0 -13643726.182 -4201985.808 21161465.362 10 0 60876 49500.00000 0 -14920341.674 -6370154.907 19705532.524 10 0 60876 50400.00000 0 -16239014.943 -8271516.489 17867625.473 10 0 60876 51300.00000 0 -17542636.216 -9875515.888 15683251.433 10 0 60876 52200.00000 0 -18771077.431 -11163767.906 13194652.424 10 0 60876 53100.00000 0 -19863736.661 -12130569.999 10450000.085 10 0 60876 54000.00000 0 -20762125.738 -12782888.876 7502473.248 10 0 60876 54900.00000 0 -21412392.616 -13139821.004 4409235.030 10 0 60876 55800.00000 0 -21767672.092 -13231549.499 1230328.551 10 0 60876 56700.00000 0 -21790165.107 -13097841.150 -1972487.654 10 0 60876 57600.00000 0 -21452857.763 -12786146.918 -5136941.911 10 0 60876 58500.00000 0 -20740806.007 -12349386.252 -8201465.481 10 0 60876 59400.00000 0 -19651930.005 -11843509.351 -11106398.116 10 0 60876 60300.00000 0 -18197282.914 -11324941.148 -13795158.675 10 0 60876 61200.00000 0 -16400780.979 -10848016.132 -16215356.967 10 0 60876 62100.00000 0 -14298404.777 -10462513.655 -18319824.164 10 0 60876 63000.00000 0 -11936903.920 -10211399.212 -20067540.817 10 0 60876 63900.00000 0 -9372058.689 -10128868.373 -21424443.661 10 0 60876 64800.00000 0 -6666570.829 -10238777.163 -22364094.966 10 0 60876 65700.00000 0 -3887671.434 -10553526.101 -22868201.113 10 0 60876 66600.00000 0 -1104545.779 -11073445.710 -22926970.145 10 0 60876 67500.00000 0 1614317.425 -11786709.906 -22539301.403 10 0 60876 68400.00000 0 4203741.843 -12669781.109 -21712803.694 10 0 60876 69300.00000 0 6604335.464 -13688368.312 -20463641.914 10 0 60876 70200.00000 0 8764715.968 -14798857.477 -18816215.424 10 0 60876 71100.00000 0 10643397.398 -15950153.592 -16802674.853 10 0 60876 72000.00000 0 12210260.353 -17085856.215 -14462287.178 10 0 60876 72900.00000 0 13447545.653 -18146676.247 -11840661.984 10 0 60876 73800.00000 0 14350331.624 -19072991.456 -8988854.557 10 0 60876 74700.00000 0 14926476.982 -19807432.499 -5962363.943 10 0 60876 75600.00000 0 15196033.872 -20297390.001 -2820046.181 10 0 60876 76500.00000 0 15190157.966 -20497336.801 377035.486 10 0 60876 77400.00000 0 14949563.589 -20370867.420 3566800.392 10 0 60876 78300.00000 0 14522590.850 -19892369.028 6687356.618 10 0 60876 79200.00000 0 13962967.774 -19048253.844 9678199.886 10 0 60876 80100.00000 0 13327362.893 -17837701.587 12481381.826 10 0 60876 81000.00000 0 12672832.064 -16272881.144 15042625.326 10 0 60876 81900.00000 0 12054267.222 -14378642.441 17312365.969 10 0 60876 82800.00000 0 11521954.196 -12191691.468 19246700.273 10 0 60876 83700.00000 0 11119341.708 -9759282.656 20808223.554 10 0 60876 84600.00000 0 10881114.466 -7137482.485 21966742.440 10 0 60876 85500.00000 0 10831650.454 -4389075.628 22699849.507 10 0 60877 0.00000 0 10983926.356 -1581199.510 22993350.009 10 0 60877 900.00000 0 11338916.681 1217197.659 22841533.376 10 0 60877 1800.00000 0 11885511.436 3937968.022 22247284.384 10 0 60877 2700.00000 0 12600956.403 6516342.979 21222032.396 10 0 60877 3600.00000 0 13451798.170 8893370.983 19785538.745 10 0 60877 4500.00000 0 14395295.466 11018116.118 17965525.770 10 0 60877 5400.00000 0 15381238.878 12849527.185 15797153.487 10 0 60877 6300.00000 0 16354103.980 14357900.442 13322352.620 10 0 60877 7200.00000 0 17255448.612 15525875.555 10589025.537 10 0 60877 8100.00000 0 18026454.452 16348923.384 7650129.174 10 0 60877 9000.00000 0 18610506.404 16835305.085 4562656.644 10 0 60877 9900.00000 0 18955701.074 17005504.044 1386536.495 10 0 60877 10800.00000 0 19017178.038 16891154.209 -1816529.392 10 0 60877 11700.00000 0 18759174.435 16533509.761 -4984266.713 10 0 60877 12600.00000 0 18156714.703 15981520.607 -8055044.652 10 0 60877 13500.00000 0 17196862.339 15289595.144 -10969082.475 10 0 60877 14400.00000 0 15879478.902 14515145.283 -13669622.397 10 0 60877 15300.00000 0 14217456.331 13716018.199 -16104044.848 10 0 60877 16200.00000 0 12236410.937 12947924.274 -18224903.413 10 0 60877 17100.00000 0 9973850.328 12261970.947 -19990858.373 10 0 60877 18000.00000 0 7477846.966 11702407.703 -21367489.907 10 0 60877 18900.00000 0 4805273.013 11304678.360 -22327974.571 10 0 60877 19800.00000 0 2019669.694 11093863.654 -22853611.549 10 0 60877 20700.00000 0 -811160.096 11083580.359 -22934188.294 10 0 60877 21600.00000 0 -3617735.607 11275383.666 -22568178.465 10 0 60877 22500.00000 0 -6331550.769 11658697.988 -21762768.481 10 0 60877 23400.00000 0 -8887684.941 12211278.891 -20533712.418 10 0 60877 24300.00000 0 -11227263.235 12900186.144 -18905018.443 10 0 60877 25200.00000 0 -13299664.290 13683226.225 -16908473.234 10 0 60877 26100.00000 0 -15064384.037 14510802.645 -14583014.164 10 0 60877 27000.00000 0 -16492478.715 15328095.172 -11973961.958 10 0 60877 27900.00000 0 -17567528.161 16077475.165 -9132129.365 10 0 60877 28800.00000 0 -18286080.739 16701054.254 -6112823.857 10 0 60877 29700.00000 0 -18657563.208 17143258.152 -2974764.482 10 0 60877 30600.00000 0 -18703661.358 17353316.424 221065.419 10 0 60877 31500.00000 0 -18457199.569 17287562.894 3412606.620 10 0 60877 32400.00000 0 -17960568.352 16911449.535 6537929.961 10 0 60877 33300.00000 0 -17263767.771 16201189.087 9536436.173 10 0 60877 34200.00000 0 -16422150.426 15144957.449 12350026.182 10 0 60877 35100.00000 0 -15493959.867 13743605.545 14924219.543 10 0 60877 36000.00000 0 -14537768.369 12010850.956 17209199.935 10 0 60877 36900.00000 0 -13609921.680 9972941.309 19160768.342 10 0 60877 37800.00000 0 -12762097.561 7667803.213 20741186.631 10 0 60877 38700.00000 0 -12039079.729 5143711.649 21919896.458 10 0 60877 39600.00000 0 -11476839.547 2457534.273 22674100.828 10 0 60877 40500.00000 0 -11101004.823 -327377.689 22989198.190 10 0 60877 41400.00000 0 -10925778.969 -3143566.043 22859061.529 10 0 60877 42300.00000 0 -10953355.172 -5922012.910 22286157.504 10 0 60877 43200.00000 0 -11173849.891 -8594755.007 21281503.422 10 0 60877 44100.00000 0 -11565758.637 -11097458.403 19864462.433 10 0 60877 45000.00000 0 -12096915.537 -13371848.569 18062380.130 10 0 60877 45900.00000 0 -12725917.293 -15367896.220 15910068.444 10 0 60877 46800.00000 0 -13403952.831 -17045669.078 13449145.423 10 0 60877 47700.00000 0 -14076962.795 -18376772.998 10727242.308 10 0 60877 48600.00000 0 -14688038.933 -19345322.554 7797091.893 10 0 60877 49500.00000 0 -15179962.895 -19948400.406 4715514.692 10 0 60877 50400.00000 0 -15497777.506 -20195985.837 1542321.801 10 0 60877 51300.00000 0 -15591281.671 -20110355.051 -1660844.663 10 0 60877 52200.00000 0 -15417342.655 -19724978.027 -4831711.069 10 0 60877 53100.00000 0 -14941926.727 -19082958.109 -7908587.974 10 0 60877 54000.00000 0 -14141760.669 -18235080.060 -10831577.693 10 0 60877 54900.00000 0 -13005552.020 -17237549.137 -13543749.361 10 0 60877 55800.00000 0 -11534714.515 -16149517.089 -15992257.528 10 0 60877 56700.00000 0 -9743566.109 -15030500.204 -18129381.512 10 0 60877 57600.00000 0 -7658989.357 -13937799.207 -19913464.357 10 0 60877 58500.00000 0 -5319566.859 -12924030.765 -21309732.314 10 0 60877 59400.00000 0 -2774226.731 -12034875.522 -22290978.345 10 0 60877 60300.00000 0 -80453.880 -11307138.262 -22838096.004 10 0 60877 61200.00000 0 2697858.693 -10767202.377 -22940453.126 10 0 60877 62100.00000 0 5492829.178 -10429943.892 -22596098.099 10 0 60877 63000.00000 0 8235176.053 -10298150.620 -21811794.823 10 0 60877 63900.00000 0 10856869.062 -10362470.466 -20602885.955 10 0 60877 64800.00000 0 13293731.630 -10601890.301 -18992987.408 10 0 60877 65700.00000 0 15487886.429 -10984724.311 -17013520.446 10 0 60877 66600.00000 0 17389942.428 -11470069.023 -14703090.965 10 0 60877 67500.00000 0 18960832.833 -12009662.464 -12106728.560 10 0 60877 68400.00000 0 20173228.106 -12550067.796 -9275000.792 10 0 60877 69300.00000 0 21012466.252 -13035088.114 -6263020.565 10 0 60877 70200.00000 0 21476963.036 -13408309.419 -3129366.653 10 0 60877 71100.00000 0 21578086.732 -13615663.580 65060.972 10 0 60877 72000.00000 0 21339504.629 -13607902.431 3258228.056 10 0 60877 72900.00000 0 20796030.597 -13342878.253 6388171.683 10 0 60877 73800.00000 0 19992023.963 -12787534.294 9394200.895 10 0 60877 74700.00000 0 18979408.393 -11919521.482 12218068.939 10 0 60877 75600.00000 0 17815395.125 -10728373.427 14805094.707 10 0 60877 76500.00000 0 16560006.762 -9216190.441 17105212.236 10 0 60877 77400.00000 0 15273505.656 -7397803.877 19073928.820 10 0 60877 78300.00000 0 14013834.358 -5300413.678 20673174.290 10 0 60877 79200.00000 0 12834174.578 -2962713.694 21872026.326 10 0 60877 80100.00000 0 11780725.845 -433540.369 22647298.961 10 0 60877 81000.00000 0 10890795.532 2229900.234 22983984.049 10 0 60877 81900.00000 0 10191279.010 4964154.991 22875538.035 10 0 60877 82800.00000 0 9697592.396 7701909.513 22324008.936 10 0 60877 83700.00000 0 9413101.854 10374540.164 21340001.206 10 0 60877 84600.00000 0 9329072.938 12914728.341 19942478.746 10 0 60877 85500.00000 0 9425142.138 15259030.291 18158409.097 99